Emporia, KS

5:27 PM CDT on August 29, 2016 (GMT -0500)
Emporia Municipal

Weather History for KEMP - September, 2013

Change the Weather History Date:

Monday, September 16, 2013

  Actual Average Record
Temperature  
Mean Temperature 63 °F 69 °F  
Max Temperature 65 °F 81 °F 97 °F (2006)
Min Temperature 61 °F 57 °F 46 °F (1999)
Degree Days  
Heating Degree Days 2 1  
Month to date heating degree days 2 7  
Since 1 July heating degree days 4 8  
Cooling Degree Days 0 5  
Month to date cooling degree days 165 115  
Year to date cooling degree days 1294 1323  
Growing Degree Days 12 (Base 50)    
Moisture  
Dew Point 61 °F    
Average Humidity 97    
Maximum Humidity 100    
Minimum Humidity 93    
Precipitation  
Precipitation 0.01 in 0.07 in 0.04 in (2011)
Month to date precipitation 0.11 2.07  
Year to date precipitation 24.20 28.68  
Sea Level Pressure  
Sea Level Pressure 30.18 in    
Wind  
Wind Speed 9 mph (ENE)    
Max Wind Speed 16 mph    
Max Gust Speed 21 mph    
Visibility 4 miles    
Events Rain    
T = Trace of Precipitation, MM = Missing Value Source: NWS Daily Summary

Daily Weather History Graph

Daily Weather History Graph

Search for Another Location

Airport or City:

Trip Planner

Search our weather history database for the weather conditions in past years. The results will help you decide how hot, cold, wet, or windy it might be!

Date:

Astronomy

Sep. 16, 2013 Rise Set
Actual Time 7:07 AM CDT 7:30 PM CDT
Civil Twilight 6:41 AM CDT 7:57 PM CDT
Nautical Twilight 6:09 AM CDT 8:28 PM CDT
Astronomical Twilight 5:38 AM CDT 9:00 PM CDT
Moon 5:39 PM CDT (9/16) 3:56 AM CDT (9/16)
Length of Visible Light 13h 16m
Length of Day
12h 23m
Waxing Gibbous, 90% of the Moon is Illuminated
Sep 16
Waxing Gibbous
Sep 19
Full
Sep 26
Last Quarter
Oct 4
New
Oct 11
First Quarter

Hourly Weather History & Observations

Time (CDT) Temp. Dew Point Humidity Pressure Visibility Wind Dir Wind Speed Gust Speed Precip Events Conditions
12:53 AM 64.9 °F 62.1 °F 90% 30.11 in 9.0 mi NE 15.0 mph - N/A   Overcast
1:53 AM 64.0 °F 62.1 °F 93% 30.12 in 10.0 mi NE 13.8 mph 19.6 mph N/A   Overcast
2:42 AM 64.4 °F 62.6 °F 94% 30.14 in 10.0 mi ENE 9.2 mph - N/A   Overcast
2:53 AM 64.0 °F 62.1 °F 93% 30.12 in 10.0 mi NE 9.2 mph - N/A   Mostly Cloudy
3:05 AM 64.4 °F 62.6 °F 94% 30.14 in 10.0 mi ENE 10.4 mph - N/A   Mostly Cloudy
3:53 AM 64.0 °F 62.1 °F 93% 30.12 in 10.0 mi ENE 9.2 mph - N/A   Overcast
4:53 AM 64.0 °F 62.1 °F 93% 30.13 in 8.0 mi NE 9.2 mph - N/A   Overcast
5:53 AM 62.1 °F 61.0 °F 96% 30.16 in 9.0 mi NNE 6.9 mph - N/A   Overcast
6:25 AM 60.8 °F 60.8 °F 100% 30.18 in 6.0 mi NE 10.4 mph - N/A   Overcast
6:53 AM 62.1 °F 61.0 °F 96% 30.17 in 3.0 mi ENE 8.1 mph - N/A   Overcast
7:28 AM 60.8 °F 60.8 °F 100% 30.20 in 2.5 mi ENE 8.1 mph - N/A   Overcast
7:53 AM 61.0 °F 61.0 °F 100% 30.19 in 2.0 mi NE 8.1 mph - N/A   Overcast
8:32 AM 60.8 °F 60.8 °F 100% 30.22 in 1.8 mi ENE 6.9 mph - N/A   Overcast
8:48 AM 60.8 °F 60.8 °F 100% 30.22 in 1.0 mi ENE 8.1 mph - N/A   Overcast
8:53 AM 61.0 °F 61.0 °F 100% 30.21 in 1.0 mi ENE 9.2 mph - N/A   Overcast
8:56 AM 60.8 °F 60.8 °F 100% 30.22 in 1.0 mi ENE 6.9 mph - N/A   Overcast
9:12 AM 60.8 °F 60.8 °F 100% 30.23 in 1.2 mi ENE 9.2 mph - N/A   Overcast
9:23 AM 60.8 °F 60.8 °F 100% 30.23 in 1.8 mi ENE 6.9 mph - N/A   Overcast
9:33 AM 60.8 °F 60.8 °F 100% 30.23 in 2.0 mi ENE 9.2 mph - N/A   Overcast
9:53 AM 62.1 °F 61.0 °F 96% 30.22 in 3.0 mi ENE 5.8 mph - N/A   Overcast
10:15 AM 60.8 °F 60.8 °F 100% 30.23 in 2.0 mi East 10.4 mph - N/A   Overcast
10:22 AM 62.6 °F 60.8 °F 94% 30.23 in 1.8 mi ENE 9.2 mph - N/A   Overcast
10:43 AM 60.8 °F 60.8 °F 100% 30.23 in 2.0 mi ENE 11.5 mph - N/A   Overcast
10:53 AM 62.1 °F 61.0 °F 96% 30.23 in 2.5 mi East 10.4 mph - N/A   Overcast
11:18 AM 62.6 °F 60.8 °F 94% 30.23 in 1.8 mi ENE 10.4 mph - N/A   Overcast
11:39 AM 62.6 °F 60.8 °F 94% 30.23 in 2.0 mi ENE 11.5 mph - N/A   Overcast
11:53 AM 62.1 °F 61.0 °F 96% 30.21 in 4.0 mi ENE 10.4 mph - N/A   Overcast
12:53 PM 63.0 °F 61.0 °F 93% 30.20 in 4.0 mi ENE 11.5 mph - N/A   Overcast
1:53 PM 63.0 °F 61.0 °F 93% 30.18 in 6.0 mi ENE 12.7 mph - N/A   Overcast
2:03 PM 62.6 °F 60.8 °F 94% 30.19 in 6.0 mi East 11.5 mph - N/A   Overcast
2:53 PM 63.0 °F 61.0 °F 93% 30.19 in 4.0 mi East 8.1 mph - 0.00 in Rain Light Rain
3:35 PM 62.6 °F 60.8 °F 94% 30.19 in 2.0 mi ENE 9.2 mph - 0.00 in   Overcast
3:48 PM 62.6 °F 62.6 °F 100% 30.18 in 1.8 mi ENE 6.9 mph - 0.00 in   Overcast
3:53 PM 63.0 °F 62.1 °F 97% 30.18 in 1.5 mi NE 8.1 mph - 0.00 in   Overcast
4:11 PM 62.6 °F 62.6 °F 100% 30.18 in 1.2 mi NE 6.9 mph - N/A   Overcast
4:25 PM 62.6 °F 62.6 °F 100% 30.18 in 1.0 mi ENE 8.1 mph - N/A   Overcast
4:37 PM 62.6 °F 62.6 °F 100% 30.18 in 0.8 mi ENE 8.1 mph - N/A   Overcast
4:53 PM 62.1 °F 62.1 °F 100% 30.18 in 0.8 mi ENE 6.9 mph - N/A   Overcast
5:53 PM 62.1 °F 62.1 °F 100% 30.17 in 0.8 mi ENE 9.2 mph - 0.01 in   Overcast
6:04 PM 62.6 °F 62.6 °F 100% 30.17 in 1.2 mi ENE 8.1 mph - N/A   Overcast
6:15 PM 62.6 °F 62.6 °F 100% 30.16 in 1.8 mi ENE 11.5 mph - N/A   Overcast
6:35 PM 62.6 °F 62.6 °F 100% 30.16 in 2.0 mi ENE 9.2 mph - N/A   Overcast
6:53 PM 63.0 °F 62.1 °F 97% 30.15 in 2.5 mi ENE 8.1 mph - N/A   Overcast
7:04 PM 62.6 °F 62.6 °F 100% 30.16 in 3.0 mi ENE 8.1 mph - N/A   Overcast
7:53 PM 63.0 °F 61.0 °F 93% 30.15 in 5.0 mi East 6.9 mph - N/A   Overcast
8:53 PM 62.1 °F 60.1 °F 93% 30.17 in 7.0 mi East 11.5 mph - N/A   Overcast
9:41 PM 62.6 °F 60.8 °F 94% 30.18 in 6.0 mi East 8.1 mph - N/A   Overcast
9:53 PM 62.1 °F 60.1 °F 93% 30.18 in 6.0 mi East 8.1 mph - N/A   Overcast
10:53 PM 61.0 °F 60.1 °F 97% 30.18 in 5.0 mi East 10.4 mph - N/A   Overcast
11:53 PM 61.0 °F 60.1 °F 97% 30.18 in 4.0 mi East 6.9 mph - N/A   Overcast